Regional Weather Roundup
Issued by NWS

Home | Current Version | Previous Version | Text Only | Print | Product List | Glossary Off
Versions: 1 2 3 4 5 6 7 8 9 10 11 12 13 14 15 16 17 18 19 20 21 22 23 24 25 26 27 28 29 30 31 32 33 34 35 36 37 38 39 40 41 42 43 44 45 46 47 48 49 50

019
ASUS43 KDTX 040810
RWRMI
MICHIGAN HOURLY REGIONAL WEATHER ROUNDUP
NATIONAL WEATHER SERVICE DETROIT/PONTIAC MI
ISSUED BY NATIONAL WEATHER SERVICE GRAND RAPIDS MI
300 AM EST SUN DEC 04 2016

NOTE: "FAIR" INDICATES FEW OR NO CLOUDS BELOW 12,000 FEET WITH NO
SIGNIFICANT WEATHER AND/OR OBSTRUCTION TO VISIBILITY.

MIZ047>049-052>055-059>063-066>070-074>076-081>083-040900-
SOUTHEAST LOWER MICHIGAN

CITY           SKY/WX    TMP DP  RH WIND       PRES   REMARKS
ADRIAN         CLOUDY    34  29  82 CALM      30.27S
ALMA           CLOUDY    34  29  82 CALM      30.26F
ANN ARBOR      CLOUDY    34  28  79 CALM      30.25F
BAD AXE        CLOUDY    34  31  88 SW3       30.27R
DETROIT CITY   CLOUDY    36  29  75 CALM      30.27S
DETROIT        CLOUDY    35  30  82 SE3       30.27S
FLINT          CLOUDY    35  29  78 CALM      30.26F
GROSSE ILE     CLOUDY    36  27  67 CALM      30.26F
HILLSDALE      CLOUDY    32  27  80 CALM      30.23S
HOWELL         CLOUDY    34  29  84 CALM      30.25S

CITY           SKY/WX    TMP DP  RH WIND       PRES   REMARKS
JACKSON        CLOUDY    33  26  75 CALM      30.25S
LANSING        CLOUDY    34  27  75 S5        30.27R WCI  30
MASON          CLOUDY    33  29  85 CALM      30.26R
MONROE         CLOUDY    35  30  83 SW5       30.27S WCI  30
MT. CLEMENS    CLOUDY    36  30  79 CALM      30.24F
PONTIAC        CLOUDY    35  28  75 CALM      30.24F
PORT HOPE        N/A     35  34  96 SW3       30.24R
PORT HURON     CLOUDY    34  32  93 CALM      30.27F
TRI CITIES     CLOUDY    35  31  85 CALM      30.27S
YPSILANTI      CLOUDY    37  29  72 SW6       30.27S WCI  32
$$
MIZ043>046-050>051-056>058-064>065-071>073-077>080-040900-
SOUTHWEST LOWER MICHIGAN

CITY           SKY/WX    TMP DP  RH WIND       PRES   REMARKS
BATTLE CREEK   CLOUDY    34  27  75 CALM      30.25F
BENTON HARBOR  CLOUDY    34  25  69 S6        30.25S WCI  29
BIG RAPIDS     CLOUDY    33  27  79 CALM      30.23F
COLDWATER      CLOUDY    33  27  80 CALM      30.26R
HOLLAND        CLOUDY    34  28  79 S7        30.24F WCI  28
GRAND RAPIDS   CLOUDY    34  27  75 S5        30.25S WCI  30
KALAMAZOO      CLOUDY    34  25  69 SW5       30.25S WCI  30
MARSHALL       CLOUDY    32  30  92 CALM      30.26R
MOUNT PLEASANT CLOUDY    33  28  83 CALM      30.25F
MUSKEGON       CLOUDY    35  29  78 E6        30.24F WCI  30
STURGIS        CLOUDY    32  28  86 CALM      30.24S
$$
MIZ016>042-040900-
NORTHERN LOWER MICHIGAN

CITY           SKY/WX    TMP DP  RH WIND       PRES   REMARKS
ALPENA         CLOUDY    34  30  85 CALM      30.25S
BEAVER ISLAND  CLOUDY    36  35  96 W5        30.20F WCI  32
BELLAIRE       CLOUDY    33  32  96 S3        30.24S
CADILLAC       CLOUDY    31  27  84 SW3       30.21S
CHARLEVOIX     CLOUDY    34  34 100 CALM      30.25S
GAYLORD        CLOUDY    33  30  88 SW5       30.21S WCI  29
HOUGHTON LAKE  CLOUDY    33  30  88 SW3       30.23S
MANISTEE       CLOUDY    32  27  81 E3        30.24R
OSCODA         CLOUDY    35  33  93 MISG      30.25R
PELLSTON       CLOUDY    34  31  88 SE3       30.24S
TRAVERSE CITY  CLOUDY    34  30  85 CALM      30.23S
LUDINGTON      CLOUDY    32  29  88 CALM      30.23S
$$
MIZ007>008-015-040900-
EASTERN UPPER MICHIGAN

CITY           SKY/WX    TMP DP  RH WIND       PRES   REMARKS
KINROSS        CLOUDY    31  29  92 SE5       30.24R WCI  26
MACKINAC ISLAN CLOUDY    35  30  82 E5        30.23S WCI  31
NEWBERRY       CLOUDY    32  31  97 E6        30.21F WCI  26
S. S. MARIE    CLOUDY    32  27  81 E5        30.24S WCI  27
$$
MIZ004>006-011>014-085-040900-
CENTRAL UPPER MICHIGAN

CITY           SKY/WX    TMP DP  RH WIND       PRES   REMARKS
MANISTIQUE     LGT SNOW  32  30  93 CALM      30.20F
ESCANABA       CLOUDY    31  26  82 SW5       30.22S WCI  26
MENOMINEE      CLOUDY    31  23  72 CALM      30.23S
SAWYER-GWINN   CLOUDY    30  28  91 S5        30.17S WCI  25
$$
MIZ001>003-009>011-084-040900-
WESTERN UPPER MICHIGAN

CITY           SKY/WX    TMP DP  RH WIND       PRES   REMARKS
IRON MOUNTAIN  CLOUDY    29  24  82 SE5       30.16S WCI  24
HOUGHTON       CLOUDY    30  25  81 CALM      30.14F
COPPER HARBOR    N/A     33  31  92 CALM      30.17F
IRONWOOD       CLOUDY    27  23  85 CALM      30.14F
$$

ABBREVIATIONS USED IN REMARKS
   TC - TEMPERATURE IN CELSIUS
  WCI - WIND CHILL INDEX
   HX - HEAT INDEX
  VSB - VISIBILITY





USA.gov is the U.S. government's official web portal to all federal, state and local government web resources and services.